Torna al catalogo

TRANSIT 4B

AttivoNavigazioneLEO
NORAD 202·PAYLOAD·🇺🇸 United States

Lanciato Nov 15, 1961 da Cape Canaveral Space Force Station

Loading…

Prossimi Passaggi (prossime 24 ore)

TLE

AggiornatoSource: Space-Track

Epoca: Sep 14, 2026, 08:17 UTC

1 00202U 61031A   26257.34522377  .00000028  00000-0  59178-5 0  9995
2 00202  32.4372 275.7124 0100935 172.1665 188.0555 13.63798053233174

Traccia TRANSIT 4B in tempo reale con AllMySat

Download on the App Store